STARLINK-1493, 45759

Orbit data source: Space-Track

STARLINK-1493, 45759 is a payload satellite owned by SpaceX/Seattle (US) in LEO that was launched on Sat, 13 Jun 2020 UTC via an FALCON 9 launch vehicle from the Air Force Eastern Test Range (AFETR). Payload-class satellites include a variety of spacecraft equipped with specific instruments for various scientific and technological missions. These include communications satellites like Starlink; space stations such as the ISS; scientific satellites like the Hubble; Earth observation satellites from companies like Planet Labs, Umbra, and HawkEye 360; GPS; miniature CubeSats for education and research; and military/defense satellites.

Loading next visibility...
Identifier
45759, 2020-038AF
Orbit
LEO
Country
Flag of USUS
Related business
Manufacturer
SpaceX/Seattle
Mission
Operational Commercial Communications
Bus & Motor
STARLINK, Unknown motor
Mass
260 kg wet, ~248 kg dry
Launch date (UTC)
2020-06-13 (5 years ago)
Launch vehicle
FALCON 9
Launch site
Air Force Eastern Test Range (AFETR)
Object type
Payload
Rocket body
Debris
Shape & HBR
Box + 1 Pan, 10.1 m
Radar Cross Section
13.562 m², Large (>1 m²)

Expand to show TLE details & history
Last TLE update: 11 hours ago

TLE from 11 hours ago
0 STARLINK-1493
1 45759U 20038AF  25318.54238560 -.00000087  00000-0  13072-4 0  9998
2 45759  53.0553  13.5334 0001924  88.5819 271.5391 15.06383973299112
Epoch: 2025-11-14T13:01Z
TLE epoch observation values (Epoch: 2025-11-14T13:01:02.115Z)
Latitude
0.00001°
Longitude
124.39021°
Altitude
548.104 km
Speed
7.589 km/s
True Right ascension
00h 54m 08s
True Declination
0° 00' 00"
Sunlit
Object was in full shadow at epoch
Visualization orbit readout
Latitude
Unknown
Longitude
Unknown
Altitude
Unknown
Speed
Unknown
Apparent Right ascension
Unknown
Apparent Declination
Unknown
Sunlit
N/A
Visualization observer readout
Local Sidereal Time
20:54:30
Azimuth
Unknown
Elevation
Unknown
Doppler factor
Unknown
Orbital elements
Apogee altitude
548.864 km
Perigee altitude
546.199 km
Semi-major axis
6,925.668 km
Eccentricity
0.00019
Inclination
53.0553°
RAAN
13.5334°
Arg. of periapsis
88.5819°
True anomaly
271.51706°
Mean anomaly
271.5391°
Eccentric anomaly
271.52808°
Mean motion
3.76574 °/min
Orbital period
95.6 mins
BSTAR
0.000013072
Loading maneuver chart data...
Computing Atmospheric mass density...

Documentation

Showing up to 5 results
|